Weather Roundup
Issued by NWS Chicago, IL

Home | Current Version | Previous Version | Graphics & Text | Print | Product List | Glossary On
Versions: 1 2 3 4 5 6 7 8 9 10 11 12 13 14 15 16 17 18 19 20 21 22 23 24 25 26 27 28 29 30 31 32 33 34 35 36 37 38 39 40 41 42 43 44 45 46 47 48 49 50
000
NZUS59 KLOT 010110
HRRLOT

CHICAGO AREA WEATHER ROUNDUP
NATIONAL WEATHER SERVICE CHICAGO/ROMEOVILLE IL
800 PM CDT THU JUL 31 2014

NOTE: "FAIR" INDICATES FEW OR NO CLOUDS BELOW 12,000 FEET WITH NO
SIGNIFICANT WEATHER AND/OR OBSTRUCTIONS TO VISIBILITY.

* THESE STATIONS ARE NOT UNDER NWS QUALITY CONTROL. THEY ALSO MAY NOT
  REPORT WEATHER SUCH AS PRECIPITATION OR FOG.

ILZ005-006-012>014-019>023-010200-
NORTHEAST ILLINOIS

CITY           SKY/WX    TMP DP  RH WIND       PRES   REMARKS
OHARE          PTCLDY    78  56  46 W9        30.02R
MIDWAY         PTCLDY    80  58  46 W9        30.02S HX  80
AURORA         CLEAR     73  61  65 SW3       30.04R
LANSING*       PTCLDY    74  61  63 SW6       30.04R
JOLIET*        PTCLDY    76  61  59 SW3       30.04S
WAUKEGAN       CLEAR     75  56  51 VRB3      30.00S
DUPAGE AIRPORT CLEAR     75  60  59 SW6       30.03R
WHEELING       CLEAR     78  57  48 W6        30.03S
KANKAKEE*      CLEAR     72  66  83 SW3       30.05S
MORRIS*        MOCLDY    73  63  71 S3        30.04S
LEWIS AIRPORT* CLEAR     73  60  63 W6        30.04S
NORTHERLY IS     N/A     79  54  41 SW7         N/A
$$

WIZ051-052-058>065-066-070>072-010200-
SOUTHEAST WISCONSIN

CITY           SKY/WX    TMP DP  RH WIND       PRES   REMARKS
MILWAUKEE      PTCLDY    77  57  50 SW6       29.99S
KENOSHA*       CLEAR     72  59  63 SW5       30.01S
RACINE*        CLEAR     74  59  59 SW6       30.01S
BURLINGTON     CLEAR     68  59  71 SW5       30.01S
WAUKESHA       CLEAR     72  54  53 W9        30.00S
WEST BEND      PTCLDY    73  55  53 W5        30.00R
$$

INZ001>003-010>013-019-020-010200-
NORTHWEST INDIANA

CITY           SKY/WX    TMP DP  RH WIND       PRES   REMARKS
GARY*          NOT AVBL
MICHIGAN CITY* NOT AVBL
RENSSELAER*    NOT AVBL
VALPARAISO     PTCLDY    74  62  66 SW7       30.05S
$$

LMZ740>746-010200-
SOUTHERN LAKE MICHIGAN

STATION/POSITION TIME  SKY/WX   TEMP WIND        PRES    VSBY
                                AIR  DIR/SP/G
                 (UTC)          (F)  (DEG/KT/KT) (MB)    (MI)
HARRISON CRIB    0100            78  260/ 12/ 15   N/A
BURNHAM HARBOR   0100            79  280/  5/ 12   N/A
CALUMET HARBOR   0100            79  230/  7/  9 1015.5S
BURNS HARBOR     NOT AVBL
MICHIGAN CITY    0100            75  200/  5/  6   N/A
$$

ABBREVIATIONS USED IN REMARKS
   TC - TEMPERATURE IN CELSIUS
  WCI - WIND CHILL INDEX
   HX - HEAT INDEX
  VSB - VISIBILITY
$$


USA.gov is the U.S. government's official web portal to all federal, state and local government web resources and services.